Location: Newark
(49.8753°N, 23.0797°E)
Time: 21:34:50
(UTC+00:00)

ISS - Visible Passes

Search period start: 23 June 2021 00:00
Search period end: 03 July 2021 00:00
Orbit: 417 x 422 km, 51.6° (Epoch: 23 June)

Date Brightness Start Highest point End Pass type
(mag) Time Alt. Az. Time Alt. Az. Time Alt. Az.
28 Jun -1.3 01:29:34 10° SSE 01:31:04 12° SE 01:32:34 10° ESE visible
30 Jun -2.3 01:29:39 10° SSW 01:32:33 27° SE 01:35:27 10° E visible
01 Jul -1.9 00:43:36 14° S 00:45:14 19° SE 00:47:41 10° E visible
01 Jul -1.5 23:57:46 12° SE 23:57:58 13° SE 23:59:30 10° ESE visible
02 Jul -3.4 01:30:54 10° SW 01:34:12 54° SSE 01:37:32 10° ENE visible
